Tracking 35030 objects as of 9-Aug-2026
HD Live streaming from Space Station
objects crossing your sky now

SL-8 R/B

Track SL-8 R/B now!
10-day predictions


NORAD ID: 12092
Int'l Code: 1980-099B
Launch date: December 10, 1980
Source: Commonwealth of Independent States (former USSR) (CIS)
Launch site: PLESETSK MISSILE AND SPACE COMPLEX (PKMTR)

Note: This is a ROCKET BODY
Your satellite tracking list
Your tracking list is empty




NASA's NSSDC Master Catalog

Two Line Element Set (TLE):
1 12092U 80099B   26221.17143318  .00000079  00000-0  64034-4 0  9998
2 12092  82.9396 280.5061 0031309 113.3326 308.4411 13.77385506293707
Source of the keplerian elements: AFSPC